Location: Jackson Park
(37.2862°N, 79.9123°W)
Time: 14:30:56
(UTC+00:00)

S-56A Canister/Altair - Pass Details

Date: 15 May 2026
Orbit: 633 x 2484 km, 38.9° (Epoch: 6 June)

Event Time Altitude Azimuth Distance (km) Brightness Sun altitude
Rises 06:28:54 0° 284° (WNW) 3,110 - -31.3°
Reaches altitude 10° 06:31:02 10° 279° (W) 2,306 - -31.1°
Maximum altitude 06:36:13 55° 202° (SSW) 1,127 - -30.7°
Exits shadow 06:42:57 13° 128° (SE) 3,022 10.4 -30.2°
Drops below altitude 10° 06:43:42 10° 127° (SE) 3,293 10.6 -30.1°
Sets 06:47:18 0° 124° (SE) 4,575 11.4 -29.9°
